TimeCAT,TemperatureF,Dew PointF,Humidity,Sea Level PressureIn,VisibilityMPH,Wind Direction,Wind SpeedMPH,Gust SpeedMPH,PrecipitationIn,Events,Conditions,WindDirDegrees,DateUTC
4:00 AM,64.4,46.4,52,29.95,-9999.0,WSW,5.8,-,N/A,,Clear,240,2013-03-19 02:00:00
5:00 AM,60.8,46.4,59,29.95,-9999.0,Variable,2.3,-,N/A,,Clear,0,2013-03-19 03:00:00
6:00 AM,60.8,46.4,59,29.98,-9999.0,Variable,2.3,-,N/A,,Clear,0,2013-03-19 04:00:00
7:00 AM,62.6,46.4,55,29.98,-9999.0,SE,5.8,-,N/A,,Clear,130,2013-03-19 05:00:00
8:00 AM,71.6,55.4,57,30.01,-9999.0,East,6.9,-,N/A,,Clear,80,2013-03-19 06:00:00
9:00 AM,75.2,59.0,57,30.01,-9999.0,ENE,9.2,-,N/A,,Clear,60,2013-03-19 07:00:00
10:00 AM,80.6,60.8,51,30.01,-9999.0,Variable,6.9,23.0,N/A,,Clear,0,2013-03-19 08:00:00
11:00 AM,84.2,59.0,42,30.01,-9999.0,Variable,6.9,-,N/A,,Clear,0,2013-03-19 09:00:00
12:00 PM,86.0,55.4,35,29.98,6.2,Variable,4.6,-,N/A,,Partly Cloudy,0,2013-03-19 10:00:00
1:00 PM,89.6,50.0,26,29.98,6.2,Variable,6.9,-,N/A,,Scattered Clouds,0,2013-03-19 11:00:00
2:00 PM,93.2,41.0,16,29.95,6.2,Variable,5.8,-,N/A,,Scattered Clouds,0,2013-03-19 12:00:00
3:00 PM,93.2,39.2,15,29.92,6.2,SSE,11.5,-,N/A,,Scattered Clouds,150,2013-03-19 13:00:00
4:00 PM,93.2,39.2,15,29.89,6.2,Variable,5.8,-,N/A,,Partly Cloudy,0,2013-03-19 14:00:00
5:00 PM,93.2,39.2,15,29.89,6.2,Variable,3.5,-,N/A,,Partly Cloudy,0,2013-03-19 15:00:00
6:00 PM,91.4,44.6,20,29.92,-9999.0,East,8.1,-,N/A,,Clear,90,2013-03-19 16:00:00
7:00 PM,86.0,44.6,23,29.92,-9999.0,NE,3.5,-,N/A,,Clear,40,2013-03-19 17:00:00
8:00 PM,86.0,44.6,23,29.95,-9999.0,East,6.9,-,N/A,,Clear,90,2013-03-19 18:00:00
9:00 PM,80.6,44.6,28,29.98,-9999.0,SE,3.5,-,N/A,,Clear,130,2013-03-19 19:00:00
10:00 PM,77.0,46.4,34,29.98,-9999.0,South,4.6,-,N/A,,Clear,170,2013-03-19 20:00:00
11:00 PM,77.0,46.4,34,29.98,-9999.0,SE,4.6,-,N/A,,Clear,140,2013-03-19 21:00:00